Starlink 32577

operational
NORAD ID: 62044 Int'l Des: 2024-216 Owner: SPXS Country: US Constellation: starlink
LEOCIRCULAR

Starlink 32577について

説明を読み込み中...

リアルタイム位置

3D地球を読み込み中...

次回通過

高度履歴

Altitude vs Time

uPlot chart will show altitude changes over time

軌道要素

1 62044U 24216N 25352.08729737 .00028567 00000-0 10437-2 0 9996
2 62044 43.0030 4.2614 0001470 260.0650 100.0036 15.27575850 61323
Epoch: Dec 18, 2025 • Age: 12 hours

現在のステータス

高度 486.0 km
速度 7.62 km/s
衛星直下点 -16.45°S, 37.38°E
打ち上げ日 Nov 21, 2024
運用期間 1 years
タイプ internet

技術仕様

分類 Payload
質量 730.00 kg
乾燥質量 700.00 kg
総質量 730.00 kg
長さ 0.30 m
直径 4.10 m
スパン 29.00 m
形状 Box + pan
製造者 SPXS
バスタイプ Starlink V2M
フェーズステータス In Orbit
所有者/国 SPXS/US

大規模コンステレーション

Loading constellations...